Location: Ammerl�gen
(47.2167°N, 9.6000°E)
Time: 18:36:46
(UTC+00:00)

Envisat - Pass Details

Date: 03 October 2021
Orbit: 764 x 766 km, 98.2° (Epoch: 26 October)

Event Time Altitude Azimuth Distance (km) Brightness Sun altitude
Rises 03:58:37 0° 20° (NNE) 3,243 6.7 -15.1°
Reaches altitude 10° 04:01:05 10° 28° (NNE) 2,311 6.0 -14.7°
Maximum altitude 04:05:51 39° 97° (E) 1,134 4.5 -13.9°
Drops below altitude 10° 04:10:34 10° 166° (SSE) 2,294 5.5 -13.1°
Sets 04:13:00 0° 174° (S) 3,216 6.2 -12.7°
